EST,Max TemperatureF,Mean TemperatureF,Min TemperatureF,Max Dew PointF,MeanDew PointF,Min DewpointF,Max Humidity, Mean Humidity, Min Humidity, Max Sea Level PressureIn, Mean Sea Level PressureIn, Min Sea Level PressureIn, Max VisibilityMiles, Mean VisibilityMiles, Min VisibilityMiles, Max Wind SpeedMPH, Mean Wind SpeedMPH, Max Gust SpeedMPH,PrecipitationIn, CloudCover, Events, WindDirDegrees
2013-2-1,33,23,12,34,13,5,100,76,52,30.29,30.11,29.77,10,9,0,27,13,35,0.05,3,Snow,285
2013-2-2,31,20,8,30,19,9,100,77,54,30.28,30.14,29.97,10,8,1,7,2,,0.16,5,Snow,236
2013-2-3,32,29,25,30,27,21,100,86,72,29.98,29.89,29.81,10,9,2,24,10,35,0.05,8,Snow,280
2013-2-4,38,29,19,28,23,18,88,71,54,30.07,29.98,29.91,10,10,10,22,7,32,T,3,,272
2013-2-5,44,38,31,37,34,28,100,80,60,29.94,29.91,29.87,10,10,7,14,7,22,T,6,,252
2013-2-6,50,39,28,36,30,27,100,71,41,30.27,30.13,29.95,10,10,7,16,6,30,0.00,2,,299
2013-2-7,35,30,25,36,33,27,100,89,78,30.32,30.23,30.06,10,7,3,10,4,,0.04,6,Snow,89
2013-2-8,47,39,30,45,34,27,100,88,75,30.10,29.95,29.83,10,6,0,25,8,33,0.12,8,Fog-Rain-Snow,293
2013-2-9,43,33,22,27,21,16,81,56,31,30.32,30.22,30.09,10,10,10,16,7,29,0.00,1,,272
2013-2-10,49,34,19,37,25,19,100,68,36,30.41,30.30,30.18,10,9,1,12,4,17,0.06,2,Rain,134
2013-2-11,56,45,34,55,44,30,100,77,54,30.15,29.99,29.92,10,8,1,21,7,33,0.02,4,Rain,249
2013-2-12,53,44,34,32,27,25,70,51,32,30.08,30.01,29.94,10,10,10,16,8,27,0.00,1,,285
2013-2-13,40,36,32,45,38,30,100,79,57,29.92,29.76,29.61,10,8,2,17,5,25,0.14,8,Rain,217
2013-2-14,48,38,27,34,29,27,92,65,38,30.02,29.96,29.84,10,10,10,12,7,22,T,2,,278
2013-2-15,53,38,23,39,33,27,100,71,41,30.06,30.00,29.91,10,10,5,14,5,22,T,4,Rain-Snow,264
2013-2-16,32,27,21,32,24,16,89,72,54,29.99,29.90,29.84,10,10,7,18,10,24,T,6,Snow,307
2013-2-17,25,19,13,18,11,5,77,64,50,30.18,30.03,29.89,10,9,4,20,13,35,T,4,Snow,292
2013-2-18,50,31,11,28,20,9,80,59,38,30.29,30.21,30.11,10,10,10,10,4,,0.00,0,,204
2013-2-19,46,38,30,39,28,16,100,69,38,30.11,29.94,29.79,10,9,2,20,9,29,0.03,4,Snow,238
2013-2-20,38,31,23,18,16,12,63,50,37,30.13,30.05,29.98,10,10,10,27,14,35,0.00,0,,293
2013-2-21,44,32,19,21,18,16,81,56,31,30.23,30.15,30.10,10,10,10,14,7,23,0.00,0,,286
2013-2-22,37,32,27,34,32,21,100,74,48,30.28,30.19,30.08,10,7,0,10,6,16,0.21,8,Snow,100
2013-2-23,51,40,29,46,39,32,100,89,77,30.10,29.94,29.82,10,5,0,5,1,,0.01,5,Fog-Snow,129
2013-2-24,49,41,32,43,31,25,100,68,36,30.06,29.94,29.83,10,10,2,15,9,24,0.00,1,,290
2013-2-25,40,31,22,28,26,23,92,75,57,30.16,30.10,30.05,10,10,7,9,4,,0.00,1,,94
2013-2-26,37,33,28,39,33,25,100,85,69,30.11,29.83,29.59,10,7,1,23,10,33,0.45,8,Rain,86
2013-2-27,42,38,33,39,36,34,100,83,65,29.75,29.69,29.60,10,9,0,10,6,18,0.01,6,Fog-Snow,267
2013-2-28,36,33,29,36,29,27,100,82,64,29.83,29.75,29.69,10,10,2,16,10,29,0.01,8,Snow,284